SWA4525 KSRQ-KBWI

Flight info

Callsign SWA4525
Flight time 2h 10m
Altitude FL390
Route TIDES1 CAMJO Q99 OGRAE GOOOB THHMP RAVNN8
Aircraft B737/M-SDE2E3FGHIRWXY/LB1

Departure

Time 2026-04-23 02:23
Airport Sarasota Bradenton International Airport (KSRQ)

Arrival

Time 2026-04-23 04:33
Airport Baltimore/Washington International Thurgood Marshall Airport (KBWI)
Time Latitude Longitude Altitude Speed Heading
2026-04-23 02:07 27.38823 -82.55255 42 ft 0 kts 220°
2026-04-23 02:10 27.38822 -82.55255 42 ft 0 kts 220°
2026-04-23 02:11 27.38822 -82.55256 42 ft 0 kts 220°
2026-04-23 02:14 27.38821 -82.55256 42 ft 0 kts 220°
2026-04-23 02:14 27.38821 -82.55257 42 ft 0 kts 220°
2026-04-23 02:15 27.38827 -82.55251 42 ft 2 kts 220°
2026-04-23 02:16 27.38841 -82.55238 42 ft 3 kts 220°
2026-04-23 02:16 27.38856 -82.55224 42 ft 3 kts 220°
2026-04-23 02:16 27.38872 -82.55209 42 ft 3 kts 220°
2026-04-23 02:16 27.38888 -82.55194 42 ft 3 kts 220°
2026-04-23 02:17 27.38903 -82.55179 42 ft 3 kts 220°
2026-04-23 02:17 27.38919 -82.55164 42 ft 3 kts 220°
2026-04-23 02:17 27.38935 -82.55149 42 ft 3 kts 220°
2026-04-23 02:17 27.38951 -82.55135 42 ft 2 kts 220°
2026-04-23 02:18 27.38951 -82.55134 42 ft 0 kts 220°
2026-04-23 02:18 27.38926 -82.55130 42 ft 8 kts 137°
2026-04-23 02:18 27.38880 -82.55073 42 ft 10 kts 127°
2026-04-23 02:18 27.38834 -82.55011 42 ft 11 kts 132°
2026-04-23 02:19 27.38790 -82.54946 42 ft 10 kts 102°
2026-04-23 02:19 27.38802 -82.54878 42 ft 9 kts 71°
2026-04-23 02:19 27.38797 -82.54820 42 ft 7 kts 123°
2026-04-23 02:19 27.38764 -82.54776 42 ft 8 kts 133°
2026-04-23 02:20 27.38729 -82.54735 42 ft 7 kts 134°
2026-04-23 02:20 27.38698 -82.54700 42 ft 6 kts 134°
2026-04-23 02:20 27.38672 -82.54670 42 ft 5 kts 134°
2026-04-23 02:20 27.38650 -82.54644 42 ft 4 kts 134°
2026-04-23 02:21 27.38630 -82.54621 42 ft 4 kts 134°
2026-04-23 02:21 27.38610 -82.54595 42 ft 5 kts 123°
2026-04-23 02:21 27.38606 -82.54561 42 ft 5 kts 66°
2026-04-23 02:21 27.38628 -82.54532 42 ft 5 kts 47°
2026-04-23 02:22 27.38652 -82.54503 42 ft 6 kts 39°
2026-04-23 02:22 27.38686 -82.54507 42 ft 6 kts 317°
2026-04-23 02:22 27.38797 -82.54636 42 ft 62 kts 314°
2026-04-23 02:22 27.39323 -82.55245 42 ft 152 kts 315°
2026-04-23 02:23 27.40220 -82.56289 304 ft 208 kts 315°
2026-04-23 02:23 27.41171 -82.57462 1557 ft 207 kts 309°
2026-04-23 02:23 27.41700 -82.59023 2222 ft 227 kts 282°
2026-04-23 02:23 27.41694 -82.60880 2507 ft 246 kts 266°
2026-04-23 02:24 27.41485 -82.62855 2563 ft 263 kts 262°
2026-04-23 02:24 27.41240 -82.64918 2580 ft 269 kts 262°
2026-04-23 02:24 27.40993 -82.66985 2582 ft 271 kts 261°
2026-04-23 02:24 27.40551 -82.69059 3245 ft 267 kts 252°
2026-04-23 02:25 27.39944 -82.71046 4412 ft 271 kts 250°
2026-04-23 02:25 27.39737 -82.73149 5379 ft 277 kts 273°
2026-04-23 02:25 27.40316 -82.75212 6371 ft 278 kts 299°
2026-04-23 02:25 27.41588 -82.76812 7372 ft 278 kts 323°
2026-04-23 02:26 27.43294 -82.77791 8436 ft 276 kts 339°
2026-04-23 02:26 27.45080 -82.78591 9484 ft 279 kts 338°
2026-04-23 02:26 27.46973 -82.79095 10362 ft 285 kts 355°
2026-04-23 02:26 27.48984 -82.79116 11120 ft 297 kts
2026-04-23 02:27 27.51093 -82.79083 11756 ft 312 kts
2026-04-23 02:27 27.53297 -82.79038 12402 ft 325 kts
2026-04-23 02:27 27.55622 -82.78982 13047 ft 339 kts
2026-04-23 02:27 27.58007 -82.78957 13661 ft 353 kts
2026-04-23 02:28 27.60501 -82.78943 14273 ft 366 kts
2026-04-23 02:28 27.63077 -82.78929 14947 ft 376 kts
2026-04-23 02:28 27.65664 -82.78915 15703 ft 382 kts
2026-04-23 02:28 27.68384 -82.78899 16504 ft 387 kts
2026-04-23 02:29 27.71090 -82.78886 17223 ft 394 kts
2026-04-23 02:29 27.73851 -82.78872 17891 ft 402 kts
2026-04-23 02:29 27.76666 -82.78863 18532 ft 409 kts 360°
2026-04-23 02:29 27.79539 -82.78851 19136 ft 417 kts 357°
2026-04-23 02:30 27.82408 -82.78829 20151 ft 408 kts 356°
2026-04-23 02:30 27.85222 -82.78808 21104 ft 405 kts 356°
2026-04-23 02:30 27.88041 -82.78785 21841 ft 406 kts 356°
2026-04-23 02:30 27.90858 -82.78767 22494 ft 408 kts 356°
2026-04-23 02:31 27.93707 -82.78749 23011 ft 413 kts 356°
2026-04-23 02:31 27.96597 -82.78730 23472 ft 420 kts 356°
2026-04-23 02:31 27.99554 -82.78709 23739 ft 432 kts 357°
2026-04-23 02:31 28.02589 -82.78690 23990 ft 443 kts 357°
2026-04-23 02:32 28.05701 -82.78665 24331 ft 451 kts 357°
2026-04-23 02:32 28.08850 -82.78645 24735 ft 457 kts 359°
2026-04-23 02:32 28.12058 -82.78624 25090 ft 463 kts
2026-04-23 02:32 28.15245 -82.78601 25813 ft 455 kts
2026-04-23 02:33 28.18365 -82.78585 26657 ft 447 kts
2026-04-23 02:33 28.21464 -82.78567 27189 ft 446 kts
2026-04-23 02:33 28.24567 -82.78548 27489 ft 450 kts
2026-04-23 02:33 28.27718 -82.78528 27828 ft 453 kts
2026-04-23 02:34 28.30851 -82.78508 28189 ft 454 kts
2026-04-23 02:34 28.34008 -82.78487 28566 ft 455 kts
2026-04-23 02:34 28.37166 -82.78454 28932 ft 456 kts
2026-04-23 02:34 28.40331 -82.78319 29191 ft 459 kts
2026-04-23 02:35 28.43505 -82.78119 29475 ft 461 kts
2026-04-23 02:35 28.46715 -82.77885 29771 ft 462 kts
2026-04-23 02:35 28.49922 -82.77627 30072 ft 463 kts
2026-04-23 02:35 28.53124 -82.77350 30421 ft 463 kts
2026-04-23 02:36 28.56320 -82.77064 30778 ft 462 kts
2026-04-23 02:36 28.59519 -82.76779 31145 ft 461 kts
2026-04-23 02:36 28.62702 -82.76492 31503 ft 460 kts
2026-04-23 02:36 28.65899 -82.76204 31832 ft 460 kts
2026-04-23 02:37 28.69093 -82.75918 31928 ft 467 kts
2026-04-23 02:37 28.72341 -82.75626 32045 ft 472 kts
2026-04-23 02:37 28.75610 -82.75333 32305 ft 473 kts
2026-04-23 02:37 28.78878 -82.75038 32667 ft 472 kts
2026-04-23 02:38 28.82164 -82.74742 32973 ft 473 kts
2026-04-23 02:38 28.85435 -82.74445 33089 ft 479 kts
2026-04-23 02:38 28.88779 -82.74143 33046 ft 489 kts
2026-04-23 02:39 28.95615 -82.73528 33417 ft 495 kts
2026-04-23 02:39 28.99031 -82.73221 33775 ft 493 kts
2026-04-23 02:39 29.02442 -82.72911 34096 ft 493 kts
2026-04-23 02:39 29.05868 -82.72603 34295 ft 496 kts
2026-04-23 02:40 29.09298 -82.72293 34574 ft 496 kts
2026-04-23 02:40 29.12735 -82.71981 34855 ft 496 kts
2026-04-23 02:40 29.16169 -82.71669 35149 ft 496 kts
2026-04-23 02:40 29.19595 -82.71357 35448 ft 495 kts
2026-04-23 02:41 29.23002 -82.71044 35872 ft 489 kts
2026-04-23 02:41 29.26376 -82.70737 36322 ft 484 kts 360°
2026-04-23 02:41 29.29695 -82.70432 36659 ft 482 kts
2026-04-23 02:41 29.33034 -82.70128 36956 ft 481 kts
2026-04-23 02:42 29.36354 -82.69826 37253 ft 479 kts 359°
2026-04-23 02:42 29.39650 -82.69587 37682 ft 471 kts 357°
2026-04-23 02:42 29.42895 -82.69450 38084 ft 465 kts 356°
2026-04-23 02:42 29.46106 -82.69359 38452 ft 461 kts 355°
2026-04-23 02:43 29.49292 -82.69297 38776 ft 458 kts 355°
2026-04-23 02:43 29.52458 -82.69259 39065 ft 455 kts 355°
2026-04-23 02:43 29.55605 -82.69236 39158 ft 451 kts 354°
2026-04-23 02:44 29.61855 -82.69195 39192 ft 450 kts 354°
2026-04-23 02:44 29.68100 -82.69155 39199 ft 450 kts 354°
2026-04-23 02:45 29.74347 -82.69114 39195 ft 450 kts 354°
2026-04-23 02:45 29.80588 -82.69075 39197 ft 450 kts 355°
2026-04-23 02:46 29.86815 -82.69036 39204 ft 449 kts 354°
2026-04-23 02:46 29.93050 -82.68996 39205 ft 449 kts 355°
2026-04-23 02:47 29.99291 -82.68956 39211 ft 449 kts 355°
2026-04-23 02:47 30.05518 -82.68918 39215 ft 449 kts 355°
2026-04-23 02:48 30.11755 -82.68879 39218 ft 450 kts 355°
2026-04-23 02:48 30.17992 -82.68837 39230 ft 445 kts 355°
2026-04-23 02:49 30.24104 -82.68801 39228 ft 438 kts 355°
2026-04-23 02:49 30.30235 -82.68766 39228 ft 446 kts 355°
2026-04-23 02:50 30.36434 -82.68727 39228 ft 445 kts 355°
2026-04-23 02:50 30.42602 -82.68687 39229 ft 444 kts 356°
2026-04-23 02:51 30.48727 -82.68572 39221 ft 441 kts 358°
2026-04-23 02:51 30.54858 -82.67801 39225 ft 448 kts
2026-04-23 02:52 30.60985 -82.66508 39222 ft 445 kts
2026-04-23 02:52 30.66852 -82.65249 39211 ft 437 kts
2026-04-23 02:53 30.72821 -82.63973 39212 ft 439 kts
2026-04-23 02:53 30.78473 -82.62763 39210 ft 435 kts
2026-04-23 02:54 30.84568 -82.61458 39206 ft 432 kts
2026-04-23 02:54 30.90458 -82.60200 39208 ft 432 kts
2026-04-23 02:55 30.96369 -82.58936 39212 ft 434 kts
2026-04-23 02:55 31.02290 -82.57665 39213 ft 434 kts
2026-04-23 02:56 31.08153 -82.56067 39216 ft 435 kts 15°
2026-04-23 02:56 31.13791 -82.53453 39217 ft 440 kts 21°
2026-04-23 02:57 31.19226 -82.50166 39216 ft 443 kts 25°
2026-04-23 02:57 31.24546 -82.46761 39219 ft 434 kts 25°
2026-04-23 02:58 31.29889 -82.43454 39219 ft 435 kts 25°
2026-04-23 02:58 31.35257 -82.40174 39219 ft 437 kts 25°
2026-04-23 02:59 31.40643 -82.36887 39223 ft 437 kts 24°
2026-04-23 02:59 31.46028 -82.33601 39225 ft 438 kts 24°
2026-04-23 03:00 31.51448 -82.30290 39226 ft 445 kts 24°
2026-04-23 03:00 31.56919 -82.26944 39227 ft 445 kts 24°
2026-04-23 03:01 31.62426 -82.23571 39238 ft 449 kts 24°
2026-04-23 03:01 31.67955 -82.20178 39232 ft 450 kts 24°
2026-04-23 03:02 31.73499 -82.16774 39231 ft 450 kts 24°
2026-04-23 03:02 31.79036 -82.13369 39229 ft 452 kts 24°
2026-04-23 03:03 31.84575 -82.09957 39218 ft 451 kts 24°
2026-04-23 03:03 31.90134 -82.06531 39216 ft 452 kts 24°
2026-04-23 03:04 31.95692 -82.03101 39215 ft 453 kts 24°
2026-04-23 03:04 32.01262 -81.99657 39214 ft 453 kts 24°
2026-04-23 03:05 32.06828 -81.96211 39213 ft 453 kts 24°
2026-04-23 03:05 32.12405 -81.92767 39212 ft 454 kts 24°
2026-04-23 03:06 32.18037 -81.89376 39207 ft 457 kts 23°
2026-04-23 03:06 32.23758 -81.85995 39210 ft 466 kts 23°
2026-04-23 03:07 32.29535 -81.82593 39202 ft 462 kts 23°
2026-04-23 03:07 32.35303 -81.79197 39201 ft 466 kts 24°
2026-04-23 03:08 32.41164 -81.75748 39207 ft 475 kts 29°
2026-04-23 03:08 32.46944 -81.72342 39192 ft 452 kts 30°
2026-04-23 03:09 32.52504 -81.69063 39199 ft 446 kts 29°
2026-04-23 03:09 32.55245 -81.67449 39201 ft 435 kts 27°
2026-04-23 03:09 32.57923 -81.65865 39206 ft 429 kts 27°
2026-04-23 03:10 32.63256 -81.62709 39211 ft 429 kts 27°
2026-04-23 03:10 32.68584 -81.59551 39212 ft 429 kts 27°
2026-04-23 03:11 32.73959 -81.56361 39212 ft 437 kts 29°
2026-04-23 03:11 32.79341 -81.53164 39211 ft 431 kts 28°
2026-04-23 03:12 32.84699 -81.49978 39212 ft 432 kts 28°
2026-04-23 03:12 32.90087 -81.46768 39185 ft 437 kts 30°
2026-04-23 03:13 32.95580 -81.43500 39204 ft 450 kts 26°
2026-04-23 03:13 33.01236 -81.40126 39209 ft 461 kts 25°
2026-04-23 03:14 33.07039 -81.36661 39215 ft 468 kts 24°
2026-04-23 03:14 33.09888 -81.34950 39192 ft 453 kts 24°
2026-04-23 03:14 33.12653 -81.33290 39193 ft 447 kts 24°
2026-04-23 03:15 33.18246 -81.29934 39207 ft 456 kts 24°
2026-04-23 03:15 33.23973 -81.26491 39212 ft 465 kts 24°
2026-04-23 03:15 33.26806 -81.24785 39210 ft 449 kts 24°
2026-04-23 03:16 33.29575 -81.23118 39199 ft 446 kts 24°
2026-04-23 03:16 33.37875 -81.18116 39196 ft 446 kts 24°
2026-04-23 03:17 33.43395 -81.14782 39189 ft 443 kts 24°
2026-04-23 03:17 33.48888 -81.11462 39189 ft 444 kts 24°
2026-04-23 03:18 33.54384 -81.08136 39187 ft 445 kts 24°
2026-04-23 03:18 33.59900 -81.04791 39178 ft 444 kts 24°
2026-04-23 03:19 33.65411 -81.01444 39172 ft 445 kts 24°
2026-04-23 03:19 33.70910 -80.98100 39172 ft 444 kts 24°
2026-04-23 03:20 33.76452 -80.94729 39154 ft 453 kts 24°
2026-04-23 03:20 33.82011 -80.91322 39160 ft 437 kts 28°
2026-04-23 03:21 33.84614 -80.89562 39137 ft 425 kts 32°
2026-04-23 03:21 33.87121 -80.87677 39118 ft 429 kts 37°
2026-04-23 03:21 33.91945 -80.83392 39154 ft 435 kts 40°
2026-04-23 03:22 33.96237 -80.79154 39129 ft 435 kts 36°
2026-04-23 03:22 34.01006 -80.74554 39160 ft 446 kts 35°
2026-04-23 03:23 34.05935 -80.69888 39152 ft 457 kts 34°
2026-04-23 03:23 34.10891 -80.65200 39154 ft 468 kts 36°
2026-04-23 03:24 34.16033 -80.60358 39168 ft 463 kts 41°
2026-04-23 03:24 34.18523 -80.58014 39161 ft 447 kts 41°
2026-04-23 03:24 34.20949 -80.55726 39163 ft 441 kts 41°
2026-04-23 03:25 34.25757 -80.51218 39168 ft 439 kts 41°
2026-04-23 03:25 34.30517 -80.46793 39175 ft 423 kts 37°
2026-04-23 03:26 34.35170 -80.42494 39176 ft 422 kts 37°
2026-04-23 03:26 34.39833 -80.38189 39169 ft 420 kts 38°
2026-04-23 03:27 34.44495 -80.33885 39164 ft 423 kts 39°
2026-04-23 03:27 34.49119 -80.29605 39164 ft 420 kts 36°
2026-04-23 03:28 34.53762 -80.25303 39162 ft 420 kts 36°
2026-04-23 03:28 34.58379 -80.21019 39160 ft 419 kts 36°
2026-04-23 03:29 34.63002 -80.16724 39158 ft 420 kts 36°
2026-04-23 03:29 34.67629 -80.12416 39152 ft 420 kts 36°
2026-04-23 03:30 34.72256 -80.08094 39152 ft 420 kts 36°
2026-04-23 03:30 34.76881 -80.03783 39151 ft 420 kts 36°
2026-04-23 03:31 34.81559 -79.99503 39145 ft 421 kts 36°
2026-04-23 03:31 34.86270 -79.95310 39141 ft 422 kts 35°
2026-04-23 03:32 34.91009 -79.91120 39123 ft 422 kts 37°
2026-04-23 03:32 34.95750 -79.86923 39105 ft 423 kts 37°
2026-04-23 03:33 35.00508 -79.82704 39082 ft 428 kts 40°
2026-04-23 03:33 35.05393 -79.78375 39104 ft 441 kts 33°
2026-04-23 03:34 35.10426 -79.73923 39076 ft 453 kts 32°
2026-04-23 03:34 35.15582 -79.69383 39059 ft 464 kts 32°
2026-04-23 03:35 35.20885 -79.64810 39066 ft 467 kts 32°
2026-04-23 03:35 35.26147 -79.60303 39109 ft 462 kts 31°
2026-04-23 03:36 35.31461 -79.55744 39102 ft 473 kts 34°
2026-04-23 03:36 35.36847 -79.51143 39053 ft 458 kts 37°
2026-04-23 03:37 35.39378 -79.48982 39141 ft 438 kts 37°
2026-04-23 03:37 35.41829 -79.46874 39132 ft 427 kts 38°
2026-04-23 03:37 35.46660 -79.42716 39136 ft 427 kts 39°
2026-04-23 03:38 35.51567 -79.38487 39134 ft 438 kts 39°
2026-04-23 03:38 35.56627 -79.34119 39138 ft 451 kts 35°
2026-04-23 03:39 35.61787 -79.29676 39153 ft 453 kts 31°
2026-04-23 03:39 35.64306 -79.27495 39132 ft 438 kts 31°
2026-04-23 03:39 35.66794 -79.25341 39124 ft 435 kts 31°
2026-04-23 03:40 35.71715 -79.21059 39108 ft 433 kts 32°
2026-04-23 03:40 35.76387 -79.16368 39103 ft 437 kts 38°
2026-04-23 03:41 35.80695 -79.11063 39098 ft 441 kts 44°
2026-04-23 03:41 35.84793 -79.05381 39068 ft 448 kts 44°
2026-04-23 03:42 35.88999 -78.99713 39032 ft 451 kts 44°
2026-04-23 03:42 35.93250 -78.94094 39064 ft 446 kts 43°
2026-04-23 03:43 35.97465 -78.88532 39103 ft 441 kts 42°
2026-04-23 03:43 36.01650 -78.83003 39094 ft 443 kts 43°
2026-04-23 03:44 36.05855 -78.77443 39039 ft 447 kts 43°
2026-04-23 03:44 36.10085 -78.71849 39071 ft 442 kts 43°
2026-04-23 03:45 36.14265 -78.66313 39109 ft 440 kts 42°
2026-04-23 03:45 36.18415 -78.60798 39103 ft 441 kts 43°
2026-04-23 03:46 36.22567 -78.55281 39121 ft 432 kts 42°
2026-04-23 03:46 36.26646 -78.49848 39130 ft 432 kts 42°
2026-04-23 03:47 36.30734 -78.44395 39132 ft 433 kts 42°
2026-04-23 03:47 36.34820 -78.38934 39134 ft 433 kts 42°
2026-04-23 03:48 36.38905 -78.33488 39135 ft 432 kts 41°
2026-04-23 03:48 36.43237 -78.28396 39129 ft 428 kts 36°
2026-04-23 03:49 36.47923 -78.23909 39142 ft 425 kts 30°
2026-04-23 03:49 36.52777 -78.19727 39147 ft 424 kts 31°
2026-04-23 03:50 36.57575 -78.15494 39149 ft 425 kts 31°
2026-04-23 03:50 36.62367 -78.11214 39154 ft 425 kts 31°
2026-04-23 03:51 36.67156 -78.06915 39155 ft 425 kts 31°
2026-04-23 03:51 36.71944 -78.02604 39145 ft 424 kts 31°
2026-04-23 03:52 36.76709 -77.98304 39141 ft 424 kts 31°
2026-04-23 03:52 36.81470 -77.93999 39137 ft 424 kts 31°
2026-04-23 03:53 36.86208 -77.89707 39127 ft 423 kts 31°
2026-04-23 03:53 36.90595 -77.85726 39125 ft 423 kts 31°
2026-04-23 03:54 36.95335 -77.81417 39128 ft 425 kts 32°
2026-04-23 03:54 37.00108 -77.77076 39116 ft 423 kts 32°
2026-04-23 03:55 37.04858 -77.72747 39108 ft 423 kts 31°
2026-04-23 03:55 37.09600 -77.68418 39106 ft 423 kts 31°
2026-04-23 03:56 37.14340 -77.64083 39098 ft 423 kts 31°
2026-04-23 03:56 37.19074 -77.59747 39086 ft 422 kts 31°
2026-04-23 03:57 37.23708 -77.55493 39090 ft 423 kts 31°
2026-04-23 03:57 37.28442 -77.51146 39086 ft 423 kts 31°
2026-04-23 03:58 37.33172 -77.46793 39082 ft 422 kts 31°
2026-04-23 03:58 37.37888 -77.42446 38903 ft 421 kts 31°
2026-04-23 03:59 37.40263 -77.40254 37961 ft 429 kts 31°
2026-04-23 03:59 37.42670 -77.38030 36794 ft 431 kts 31°
2026-04-23 03:59 37.45065 -77.35816 36039 ft 425 kts 31°
2026-04-23 03:59 37.47452 -77.33709 36058 ft 417 kts 27°
2026-04-23 04:00 37.52517 -77.30285 36001 ft 412 kts 20°
2026-04-23 04:00 37.57744 -77.27654 36066 ft 399 kts 15°
2026-04-23 04:01 37.62930 -77.25378 36072 ft 393 kts 15°
2026-04-23 04:01 37.68164 -77.23004 36092 ft 408 kts 15°
2026-04-23 04:02 37.73581 -77.20507 36079 ft 423 kts 16°
2026-04-23 04:02 37.79118 -77.17934 36073 ft 431 kts 16°
2026-04-23 04:03 37.84751 -77.15305 35973 ft 425 kts 16°
2026-04-23 04:03 37.87506 -77.14015 35378 ft 423 kts 16°
2026-04-23 04:03 37.90273 -77.12716 34189 ft 427 kts 16°
2026-04-23 04:04 37.93051 -77.11413 33045 ft 430 kts 16°
2026-04-23 04:04 37.95864 -77.10089 31963 ft 435 kts 16°
2026-04-23 04:04 37.98700 -77.08759 30880 ft 440 kts 15°
2026-04-23 04:04 38.01561 -77.07412 29782 ft 438 kts 15°
2026-04-23 04:05 38.04403 -77.06071 28692 ft 434 kts 15°
2026-04-23 04:05 38.07218 -77.04742 27617 ft 430 kts 16°
2026-04-23 04:05 38.09993 -77.03431 26561 ft 426 kts 16°
2026-04-23 04:05 38.12748 -77.02129 25519 ft 422 kts 16°
2026-04-23 04:06 38.15477 -77.00838 24491 ft 418 kts 16°
2026-04-23 04:06 38.18186 -76.99551 23474 ft 413 kts 17°
2026-04-23 04:06 38.20863 -76.98284 22460 ft 407 kts 17°
2026-04-23 04:06 38.23483 -76.97047 21461 ft 402 kts 17°
2026-04-23 04:07 38.26076 -76.95820 20471 ft 397 kts 17°
2026-04-23 04:07 38.28650 -76.94600 19487 ft 391 kts 17°
2026-04-23 04:07 38.31166 -76.93405 18523 ft 385 kts 17°
2026-04-23 04:07 38.33652 -76.92221 17565 ft 379 kts 17°
2026-04-23 04:08 38.36103 -76.91056 16611 ft 372 kts 17°
2026-04-23 04:08 38.38501 -76.89915 15676 ft 367 kts 17°
2026-04-23 04:08 38.40878 -76.88783 14744 ft 364 kts 17°
2026-04-23 04:08 38.43231 -76.87661 13840 ft 361 kts 17°
2026-04-23 04:09 38.45542 -76.86561 13144 ft 347 kts 17°
2026-04-23 04:09 38.47744 -76.85512 12523 ft 331 kts 17°
2026-04-23 04:09 38.49844 -76.84511 11929 ft 315 kts 17°
2026-04-23 04:09 38.51840 -76.83557 11445 ft 298 kts 16°
2026-04-23 04:10 38.53717 -76.82661 11118 ft 279 kts 16°
2026-04-23 04:10 38.55445 -76.81834 10880 ft 256 kts 15°
2026-04-23 04:10 38.57054 -76.81065 10766 ft 239 kts 15°
2026-04-23 04:10 38.58574 -76.80338 10572 ft 229 kts 15°
2026-04-23 04:11 38.60037 -76.79638 10364 ft 221 kts 15°
2026-04-23 04:11 38.61441 -76.78965 10179 ft 212 kts 14°
2026-04-23 04:11 38.62791 -76.78316 10017 ft 203 kts 14°
2026-04-23 04:11 38.64089 -76.77693 9811 ft 197 kts 14°
2026-04-23 04:12 38.65369 -76.77080 9588 ft 196 kts 14°
2026-04-23 04:12 38.66652 -76.76463 9372 ft 198 kts 14°
2026-04-23 04:12 38.67935 -76.75842 9155 ft 196 kts 14°
2026-04-23 04:12 38.69183 -76.75242 9099 ft 186 kts 14°
2026-04-23 04:13 38.70267 -76.74453 8940 ft 184 kts 33°
2026-04-23 04:13 38.71023 -76.73078 8719 ft 196 kts 51°
2026-04-23 04:13 38.71736 -76.71514 8428 ft 207 kts 54°
2026-04-23 04:13 38.72458 -76.69909 8100 ft 211 kts 54°
2026-04-23 04:14 38.73184 -76.68288 7753 ft 209 kts 54°
2026-04-23 04:14 38.73904 -76.66670 7434 ft 206 kts 54°
2026-04-23 04:14 38.74608 -76.65093 7260 ft 208 kts 54°
2026-04-23 04:14 38.75320 -76.63482 7100 ft 208 kts 54°
2026-04-23 04:15 38.76030 -76.61882 7021 ft 207 kts 54°
2026-04-23 04:15 38.76737 -76.60280 7003 ft 207 kts 53°
2026-04-23 04:15 38.78630 -76.57719 7009 ft 198 kts 17°
2026-04-23 04:16 38.79941 -76.57287 6824 ft 192 kts
2026-04-23 04:16 38.81225 -76.56933 6468 ft 190 kts
2026-04-23 04:16 38.82517 -76.56572 6094 ft 189 kts
2026-04-23 04:16 38.83767 -76.56226 6016 ft 183 kts
2026-04-23 04:17 38.85079 -76.56240 6012 ft 197 kts 348°
2026-04-23 04:17 38.86443 -76.56584 6018 ft 202 kts 346°
2026-04-23 04:17 38.87821 -76.56904 5943 ft 203 kts 346°
2026-04-23 04:17 38.89207 -76.57242 5594 ft 202 kts 345°
2026-04-23 04:18 38.90575 -76.57580 5219 ft 200 kts 345°
2026-04-23 04:18 38.91929 -76.57917 5031 ft 198 kts 345°
2026-04-23 04:18 38.93288 -76.58259 5022 ft 200 kts 345°
2026-04-23 04:18 38.94646 -76.58606 5015 ft 200 kts 345°
2026-04-23 04:19 38.96000 -76.58970 5005 ft 199 kts 342°
2026-04-23 04:19 38.97170 -76.59876 4826 ft 197 kts 316°
2026-04-23 04:19 38.97923 -76.61312 4518 ft 193 kts 300°
2026-04-23 04:19 38.98588 -76.62807 4167 ft 194 kts 300°
2026-04-23 04:20 38.99257 -76.64292 4038 ft 193 kts 299°
2026-04-23 04:20 38.99919 -76.65755 4025 ft 194 kts 300°
2026-04-23 04:20 39.00605 -76.67279 4019 ft 193 kts 300°
2026-04-23 04:20 39.01275 -76.68772 4016 ft 193 kts 300°
2026-04-23 04:21 39.01946 -76.70262 4016 ft 193 kts 300°
2026-04-23 04:21 39.02618 -76.71757 4017 ft 193 kts 300°
2026-04-23 04:21 39.03291 -76.73247 4021 ft 193 kts 300°
2026-04-23 04:21 39.03965 -76.74735 4022 ft 193 kts 300°
2026-04-23 04:22 39.04527 -76.75981 4023 ft 193 kts 300°
2026-04-23 04:22 39.05266 -76.77619 4021 ft 193 kts 300°
2026-04-23 04:22 39.05936 -76.79101 4022 ft 193 kts 300°
2026-04-23 04:22 39.06610 -76.80591 4022 ft 193 kts 300°
2026-04-23 04:23 39.07257 -76.82112 4019 ft 193 kts 296°
2026-04-23 04:23 39.07743 -76.83706 4026 ft 193 kts 290°
2026-04-23 04:23 39.08179 -76.85339 4025 ft 193 kts 290°
2026-04-23 04:23 39.08621 -76.86966 4025 ft 193 kts 290°
2026-04-23 04:24 39.09063 -76.88600 4027 ft 193 kts 290°
2026-04-23 04:24 39.09502 -76.90227 4029 ft 193 kts 290°
2026-04-23 04:24 39.09942 -76.91863 4029 ft 193 kts 290°
2026-04-23 04:24 39.10407 -76.93491 4029 ft 193 kts 291°
2026-04-23 04:25 39.10867 -76.95104 4029 ft 193 kts 291°
2026-04-23 04:25 39.11331 -76.96726 3934 ft 194 kts 291°
2026-04-23 04:25 39.11797 -76.98350 3579 ft 192 kts 291°
2026-04-23 04:25 39.12256 -76.99957 3262 ft 188 kts 291°
2026-04-23 04:26 39.12698 -77.01455 3214 ft 172 kts 294°
2026-04-23 04:26 39.13511 -77.02554 3018 ft 176 kts 323°
2026-04-23 04:26 39.14702 -77.02880 2652 ft 180 kts 356°
2026-04-23 04:26 39.15793 -77.02304 2384 ft 181 kts 30°
2026-04-23 04:27 39.16423 -77.00990 2353 ft 175 kts 65°
2026-04-23 04:27 39.16631 -76.99438 2367 ft 178 kts 79°
2026-04-23 04:27 39.16796 -76.97859 2352 ft 178 kts 79°
2026-04-23 04:28 39.17144 -76.94707 2336 ft 178 kts 79°
2026-04-23 04:28 39.17316 -76.93129 2332 ft 178 kts 79°
2026-04-23 04:28 39.17491 -76.91550 2232 ft 176 kts 79°
2026-04-23 04:28 39.17657 -76.90012 1878 ft 174 kts 80°
2026-04-23 04:29 39.17824 -76.88494 1560 ft 164 kts 79°
2026-04-23 04:29 39.17964 -76.87171 1531 ft 141 kts 80°
2026-04-23 04:29 39.18105 -76.85910 1548 ft 144 kts 79°
2026-04-23 04:29 39.18209 -76.84634 1533 ft 144 kts 84°
2026-04-23 04:30 39.18163 -76.83353 1536 ft 144 kts 91°
2026-04-23 04:30 39.18104 -76.82068 1532 ft 144 kts 91°
2026-04-23 04:30 39.18046 -76.80783 1528 ft 144 kts 91°
2026-04-23 04:30 39.17987 -76.79498 1526 ft 144 kts 91°
2026-04-23 04:31 39.17922 -76.78209 1524 ft 144 kts 92°
2026-04-23 04:31 39.17861 -76.76934 1523 ft 144 kts 91°
2026-04-23 04:31 39.17805 -76.75651 1333 ft 143 kts 91°
2026-04-23 04:31 39.17792 -76.74385 1055 ft 141 kts 91°
2026-04-23 04:32 39.17704 -76.73140 821 ft 138 kts 94°
2026-04-23 04:32 39.17636 -76.71939 650 ft 134 kts 93°
2026-04-23 04:32 39.17571 -76.70735 473 ft 136 kts 93°
2026-04-23 04:32 39.17507 -76.69524 305 ft 136 kts 94°
2026-04-23 04:33 39.17437 -76.68310 177 ft 134 kts 94°
2026-04-23 04:33 39.17373 -76.67196 158 ft 107 kts 94°
2026-04-23 04:33 39.17339 -76.66573 157 ft 40 kts 94°
2026-04-23 04:33 39.17322 -76.66281 157 ft 31 kts 96°
2026-04-23 04:34 39.17309 -76.66049 157 ft 16 kts 92°
2026-04-23 04:34 39.17347 -76.65988 157 ft 7 kts 358°
2026-04-23 04:34 39.17395 -76.65985 157 ft 7 kts
2026-04-23 04:34 39.17418 -76.65985 157 ft 0 kts 354°
2026-04-23 04:35 39.17419 -76.65985 157 ft 1 kts 354°
2026-04-23 04:35 39.17432 -76.65990 157 ft 3 kts 328°
2026-04-23 04:36 39.17445 -76.66026 157 ft 6 kts 280°
2026-04-23 04:36 39.17449 -76.66080 157 ft 6 kts 274°
2026-04-23 04:36 39.17453 -76.66138 157 ft 7 kts 274°
2026-04-23 04:36 39.17456 -76.66200 157 ft 7 kts 274°
2026-04-23 04:37 39.17460 -76.66265 157 ft 8 kts 275°
2026-04-23 04:37 39.17465 -76.66334 157 ft 8 kts 275°
2026-04-23 04:37 39.17469 -76.66406 157 ft 8 kts 274°
2026-04-23 04:37 39.17474 -76.66481 157 ft 8 kts 274°
2026-04-23 04:38 39.17478 -76.66550 157 ft 8 kts 273°
2026-04-23 04:38 39.17481 -76.66622 157 ft 8 kts 273°
2026-04-23 04:38 39.17485 -76.66698 157 ft 9 kts 274°
2026-04-23 04:38 39.17489 -76.66777 157 ft 9 kts 274°
2026-04-23 04:39 39.17520 -76.66830 157 ft 7 kts
2026-04-23 04:39 39.17568 -76.66826 157 ft 7 kts
2026-04-23 04:39 39.17618 -76.66823 157 ft 7 kts
2026-04-23 04:39 39.17670 -76.66817 157 ft 8 kts
2026-04-23 04:40 39.17725 -76.66805 157 ft 8 kts 14°
2026-04-23 04:40 39.17761 -76.66787 157 ft 4 kts 24°
2026-04-23 04:40 39.17789 -76.66768 157 ft 5 kts 28°
2026-04-23 04:40 39.17801 -76.66761 157 ft 1 kts 26°
2026-04-23 04:41 39.17801 -76.66760 157 ft 0 kts 26°
2026-04-23 04:43 27.38823 -82.55255 30 ft 0 kts 220°